Tracking 17141 objects as of 6-July-2015
HD Live streaming from Space Station

EYESAT-1

Track EYESAT-1 now!
10-day predictions
EYESAT-1 is classified as:


NORAD ID: 22825
Int'l Code: 1993-061C
Perigee: 794.0 km
Apogee: 804.4 km
Inclination: 98.7 °
Period: 100.7 minutes
Semi major axis: 7170 km
RCS: 0.1804 m2 (medium)
Launch date: September 26, 1993
Source: South Korea (SKOR)

EYESAT 1, an American microsatellite was one of the six microsatellites that were launched along with SPOT 3 (93-061A). It was a relay satellite to acquire and relay environmental data from ground-based stations and certain industrial facilities.
Your satellite tracking list
Your tracking list is empty





NASA's NSSDC Master Catalog

Two Line Element Set (TLE):
1 22825U 93061C   15186.11965546  .00000058  00000-0  40075-4 0  9999
2 22825 098.7096 136.2347 0007264 255.0254 170.5745 14.29889618135507

Source of the keplerian elements: AFSPC

N2YO: 434